星链-33591 (STARLINK-33591)

导读

STARLINK-33591是美国SpaceX公司星链(Starlink)卫星星座中的一颗卫星,于2025年1月21日发射入轨。星链项目旨在构建低轨卫星互联网星座,为全球尤其是偏远地区提供高速宽带互联网服务,这颗卫星是SpaceX在星舰爆炸后的首次飞行任务中发射的21颗星链卫星之一,目前运行在近地轨道,持续为星座网络提供通信支持。

基本信息
目录编号:
62777
目录名称:
STARLINK-33591
国际标识:
2025-015V
轨道中心:
EARTH
卫星名称:
星链-33591
卫星全名:
星链-33591 (STARLINK-33591)
卫星状态:
在轨 (已飞行591 天)
发射日期:
2025-01-21 UTC
国别 :
美国 (US)
星等 :
--
轨道信息
数据来源 国际轨道数据
星历时间: 2026-09-03T12:09:58+0800
1天前
查看轨道信息
半长轴: 6840.839km
偏心率: 0.0001587
轨道倾角: 53.159°
近地点辐角 79.968°
升交点赤经 214.593°
平近点角 280.150°
近地点: 461.616km
远地点: 463.788km
周期: 93.848分钟
每日圈数: 15.344005
详细信息
固有亮度:
5
最大亮度:
2.5
卫星平台:
Starlink V1.0
覆盖范围:
全球
运营商:
太空探索技术公司
运营商所在国:
美国
制造商(研发单位):
太空探索技术公司
制造商所在国:
美国
使用方式:
暂无
卫星简介
Starlink 计划是 SpaceX 推出的全球卫星互联网项目,通过发射低轨道卫星,为全球尤其是偏远地区提供高速、低延迟的互联网服务。自 2019 年起,Starlink 已部署数千颗卫星,旨在缩小全球数字鸿沟,推动互联网普及。该项目还为军事、航空等行业提供通信支持,带来广泛经济效益。
2D轨道图
3D轨道图
轨道高度分析图
轨道倾角分析图
轨道综合分析图
查看轨道综合分析图
交会数据列表
事件ID 空间交会对象 最接近时刻(TCA) 交会距离 交会风险概率(CRP) 交会风险指数(CRI) 操作
CDM_260905-055406-009206-277721
2026-09-05T
05:54:15+0000
0.649 km
远距离
6.809379E-5 中风险 0.72
CDM_260904-174903-946706-277721
ALICE (39467)
2026-09-04T
17:49:04+0000
1.238 km
极远距离
9.345361E-6 低风险 0.54
CDM_260905-041205-897506-277721
2026-09-05T
04:12:00+0000
1.010 km
极远距离
7.896109E-6 低风险 0.53
CDM_260904-194406-009206-277722
2026-09-04T
19:44:36+0000
1.292 km
极远距离
6.944616E-6 低风险 0.52
CDM_260905-140105-340006-277721
2026-09-05T
14:01:53+0000
2.122 km
极远距离
2.193032E-6 低风险 0.42
CDM_260904-040102-360606-277723
CERISE (23606)
2026-09-04T
04:01:03+0000
2.371 km
极远距离
1.681451E-6 低风险 0.4
CDM_260904-211806-009206-277721
2026-09-04T
21:18:23+0000
2.127 km
极远距离
1.622482E-6 低风险 0.39
CDM_260905-062804-942006-277721
2026-09-05T
06:28:17+0000
2.544 km
极远距离
1.131611E-6 低风险 0.36